[[{"header":{"parameterUnit":"m.s-1","parameterCategory":1,"la1":30.2991,"la2":30.254,"lo1":-89.0895,"lo2":-89.0444,"dy":0.0017,"dx":0.0017,"nx":28,"ny":28,"refTime":"2025-04-08T21:00:00:Z","depth":0,"parameterNumber":2,"parameterNumberName":"U-component_of_WINDS"},"data":[0,0,0,0,0,0,0,0,0,0,0,0,0,0,0,0,0,0,0,0,0,0,0,0,0,0,0,0,0,0,0,0,0,0,0,0,0,0,0,0,0,0,0,0,0,0,0,0,0,0,0,0,0,0,0,0,0,0,3.0422,3.0423,0,3.058,3.0581,3.0583,3.0569,3.0567,3.0564,3.0562,3.0723,3.0729,3.0735,0,0,0,0,0,0,0,0,0,0,0,0,0,3.0107,3.0112,3.0421,3.0423,3.0425,3.0579,3.0581,3.0584,3.0569,3.0567,3.0564,3.0561,3.072,3.0728,3.0736,0,0,0,0,0,0,0,0,0,0,0,0,0,3.0252,3.0114,3.0421,3.0437,3.044,3.0579,3.0582,3.0584,3.057,3.0566,3.0563,3.0559,3.0718,3.0727,3.0737,3.087,0,0,3.0767,3.0771,0,0,0,0,0,0,0,0,3.0244,3.0263,3.0433,3.0436,3.044,3.0551,3.0529,3.068,3.0571,3.0521,3.0562,3.0558,3.0668,3.0682,3.072,3.0878,3.0885,3.0768,3.0774,3.0778,3.0781,0,0,0,0,0,0,0,3.0234,3.0256,3.0484,3.0435,3.0439,3.0436,3.0452,3.0558,3.0613,3.0525,3.0524,3.0543,3.067,3.071,3.0723,3.0887,3.0768,3.0776,3.0782,3.0786,3.1162,3.1166,0,0,0,0,0,0,3.022,3.0248,3.0479,3.0489,3.0331,3.0444,3.0463,3.0519,3.0612,3.0622,3.0546,3.0542,3.0695,3.0712,3.0729,3.0891,3.0778,3.0787,3.0793,3.1158,3.1163,3.1168,0,0,0,0,0,0,3.0213,3.0241,3.0473,3.0368,3.0398,3.0454,3.0516,3.0524,3.0564,3.0628,3.0637,3.0577,3.0693,3.0715,3.0835,3.0896,3.0792,3.08,3.1153,3.116,3.1166,3.1216,0,0,0,0,0,0,3.0204,3.0238,3.029,3.037,3.0403,3.0577,3.052,3.053,3.0582,3.0578,3.066,3.067,3.0692,3.0821,3.0845,3.0908,3.0808,3.1148,3.1156,3.1164,3.1209,3.1223,3.1235,0,0,0,0,0,3.0193,3.0297,3.0292,3.032,3.0469,3.058,3.0599,3.0623,3.0586,3.0638,3.0679,3.0667,3.0886,3.0833,3.086,3.0927,3.1144,3.1154,3.1163,3.1203,3.122,3.1235,0,0,0,0,0,0,3.0222,3.0308,3.0303,3.0437,3.0501,3.0578,3.0644,3.064,3.0716,3.0709,3.0735,3.0754,3.0875,3.0913,3.0853,3.1061,3.101,3.1025,3.1031,3.1048,3.1061,3.1049,3.0816,0,0,0,0,0,3.0244,3.0328,3.0398,3.0509,3.0542,3.0587,3.0637,3.065,3.0717,3.0745,3.0794,3.086,3.0944,3.0998,3.1078,3.1215,3.1232,3.1274,3.1287,3.1297,3.131,3.1385,3.1404,3.1198,3.1198,3.1198,0,0,3.0291,3.0348,3.0399,3.0517,3.0568,3.0654,3.0611,3.0703,3.0767,3.0758,3.0875,3.0914,3.0989,3.1118,3.1177,3.1154,3.1371,3.1309,3.1317,3.1324,3.1396,3.1416,3.1433,3.1204,3.1203,3.1202,0,0,3.0419,3.0471,3.0569,3.0622,3.07,3.073,3.0754,3.0831,3.0857,3.0974,3.0969,3.1046,3.1189,3.1243,3.1289,3.1439,3.143,3.1464,3.1532,3.1604,3.1621,3.1635,3.1688,3.1707,3.1476,3.1477,3.1477,0,3.0466,3.0596,3.0619,3.0714,3.0765,3.0762,3.0861,3.0911,3.1012,3.1048,3.102,3.12,3.1251,3.1392,3.1429,3.1466,3.1494,3.1455,3.1616,3.1631,3.1645,3.1696,3.1716,3.148,3.148,3.1479,3.1479,0,3.0651,3.0741,3.081,3.0908,3.0968,3.1064,3.1102,3.116,3.1167,3.12,3.1319,3.138,3.1473,3.1507,3.1515,3.165,3.1633,3.1611,3.156,3.1668,3.1716,3.1736,3.1485,3.1484,3.1483,3.1482,0,0,3.0802,3.0912,3.0937,3.0981,3.1068,3.1138,3.1234,3.1325,3.1374,3.1444,3.1525,3.1647,3.1627,3.1679,3.1693,3.1757,3.1872,3.1727,3.1729,3.1752,3.2024,3.204,3.2062,3.1867,3.1871,3.1874,3.2018,0,3.0938,3.1109,3.1133,3.1283,3.1367,3.1365,3.1449,3.1511,3.1544,3.1619,3.1656,3.1741,3.1709,3.174,3.1804,3.1844,3.1927,3.1834,3.1942,3.1946,3.1923,3.2088,3.2105,3.2238,3.2037,3.204,3.2042,0,3.1121,3.1196,3.1355,3.1431,3.1467,3.1542,3.1627,3.1699,3.177,3.179,3.1849,3.1855,3.1954,3.19,3.2037,3.1973,3.2019,3.2046,3.2051,3.2062,3.2,3.2103,3.2281,3.23,3.2072,3.207,3.2068,0,3.1215,3.1356,3.147,3.1508,3.1599,3.1652,3.1692,3.1759,3.1812,3.1887,3.1922,3.2007,3.2053,3.2119,3.2148,3.2106,3.2283,3.2231,3.2302,3.2301,3.2339,3.2336,3.2527,3.2369,3.2369,3.2368,3.2368,0,3.1366,3.1463,3.1513,3.1583,3.1692,3.1718,3.1825,3.1864,3.1924,3.2001,3.2004,3.2076,3.211,3.2188,3.2211,3.2321,3.2342,3.236,3.2365,3.236,3.2357,3.239,3.2381,3.2374,3.2373,3.2371,3.2371,0,3.1489,3.1527,3.165,3.1727,3.1748,3.1825,3.189,3.1958,3.199,3.2088,3.2112,3.2163,3.2254,3.229,3.2401,3.2417,3.2543,3.2541,3.252,3.2521,3.259,3.2583,3.2807,3.2838,3.266,3.2662,3.2663,0,3.1582,3.1657,3.1742,3.1794,3.1836,3.192,3.1974,3.2003,3.206,3.2146,3.2203,3.2294,3.2369,3.2514,3.2561,3.2646,3.2646,3.2719,3.2659,3.2651,3.2647,3.2642,3.265,3.273,3.2732,3.2733,3.2734,0,3.1744,3.1759,3.1838,3.1923,3.1988,3.2057,3.2124,3.2166,3.2205,3.2268,3.2362,3.242,3.2534,3.2624,3.2712,3.2753,3.275,3.2753,3.2774,3.2769,3.2753,3.2763,3.255,3.2748,3.2746,3.2745,3.2745,3.2744,3.1856,3.1922,3.1992,3.208,3.2133,3.2195,3.2262,3.2303,3.2382,3.2477,3.249,3.259,3.2658,3.2776,3.2821,3.29,3.288,3.2911,3.2918,3.2925,3.293,3.2741,3.2916,3.2915,3.2915,3.2915,3.2915,0,3.2018,3.2063,3.2143,3.2236,3.2305,3.2297,3.237,3.2428,3.2517,3.2581,3.2654,3.2762,3.2849,3.2903,3.2991,3.3044,3.3045,3.3066,3.3062,3.3072,3.2942,3.2915,3.3064,3.3064,3.3064,3.3063,3.3063,3.3063,3.211,3.2222,3.2245,3.2384,3.2428,3.2526,3.2569,3.2626,3.2678,3.2798,3.2871,3.2905,3.2966,3.3058,3.3138,3.3152,3.3184,3.3206,3.3218,3.3096,3.3081,3.3066,3.3041,3.3213,3.3213,3.3341,3.3343,3.3343]},{"header":{"parameterUnit":"m.s-1","parameterCategory":1,"la1":30.2991,"la2":30.254,"lo1":-89.0895,"lo2":-89.0444,"dy":0.0017,"dx":0.0017,"nx":28,"ny":28,"refTime":"2025-04-08T21:00:00:Z","depth":0,"parameterNumber":3,"parameterNumberName":"V-component_of_WINDS"},"data":[0,0,0,0,0,0,0,0,0,0,0,0,0,0,0,0,0,0,0,0,0,0,0,0,0,0,0,0,0,0,0,0,0,0,0,0,0,0,0,0,0,0,0,0,0,0,0,0,0,0,0,0,0,0,0,0,0,0,-3.0511,-3.0513,0,-3.0721,-3.0723,-3.0725,-3.0749,-3.0747,-3.0745,-3.0743,-3.096,-3.0967,-3.0975,0,0,0,0,0,0,0,0,0,0,0,0,0,-3.0133,-3.014,-3.051,-3.0513,-3.0516,-3.072,-3.0723,-3.0726,-3.075,-3.0747,-3.0745,-3.0742,-3.0957,-3.0967,-3.0976,0,0,0,0,0,0,0,0,0,0,0,0,0,-3.0315,-3.0142,-3.051,-3.0552,-3.0558,-3.072,-3.0723,-3.0727,-3.075,-3.0747,-3.0744,-3.0741,-3.0954,-3.0966,-3.0977,-3.1112,0,0,-3.1012,-3.1017,0,0,0,0,0,0,0,0,-3.0305,-3.0329,-3.0543,-3.055,-3.0556,-3.0706,-3.0669,-3.0856,-3.0751,-3.0677,-3.0743,-3.074,-3.0878,-3.0896,-3.0942,-3.1122,-3.1131,-3.1013,-3.1021,-3.1026,-3.1029,0,0,0,0,0,0,0,-3.0292,-3.032,-3.0594,-3.0546,-3.0555,-3.0562,-3.0584,-3.0705,-3.0793,-3.0684,-3.0686,-3.071,-3.0881,-3.0931,-3.0947,-3.1134,-3.1013,-3.1023,-3.1031,-3.1035,-3.1437,-3.144,0,0,0,0,0,0,-3.0271,-3.0309,-3.0587,-3.06,-3.042,-3.0571,-3.0596,-3.0661,-3.0792,-3.0808,-3.0713,-3.0711,-3.0913,-3.0934,-3.0955,-3.1122,-3.1025,-3.1036,-3.1043,-3.1433,-3.1438,-3.1442,0,0,0,0,0,0,-3.0263,-3.0296,-3.0579,-3.0456,-3.0492,-3.0581,-3.0653,-3.0667,-3.0717,-3.0814,-3.083,-3.0747,-3.0911,-3.0939,-3.1073,-3.113,-3.1041,-3.1052,-3.1429,-3.1434,-3.144,-3.1456,0,0,0,0,0,0,-3.0252,-3.0293,-3.0344,-3.0456,-3.0498,-3.0692,-3.0657,-3.0673,-3.0736,-3.0735,-3.085,-3.0866,-3.0911,-3.1055,-3.1084,-3.1144,-3.1061,-3.1424,-3.1431,-3.1438,-3.1451,-3.1462,-3.1471,0,0,0,0,0,-3.0239,-3.034,-3.0346,-3.038,-3.0564,-3.0695,-3.0719,-3.0768,-3.0741,-3.0794,-3.0856,-3.0863,-3.1119,-3.1069,-3.1102,-3.1166,-3.1421,-3.1429,-3.1437,-3.1447,-3.146,-3.1471,0,0,0,0,0,0,-3.0232,-3.0356,-3.0364,-3.0505,-3.0589,-3.0699,-3.0767,-3.078,-3.0874,-3.0869,-3.0926,-3.0952,-3.1084,-3.1138,-3.108,-3.1304,-3.1267,-3.1283,-3.1263,-3.1276,-3.1286,-3.127,-3.1071,0,0,0,0,0,-3.0247,-3.0343,-3.0446,-3.056,-3.0602,-3.0677,-3.0736,-3.0766,-3.0856,-3.0892,-3.0964,-3.1052,-3.1153,-3.1218,-3.1315,-3.1459,-3.1485,-3.152,-3.153,-3.1537,-3.155,-3.1632,-3.1649,-3.1469,-3.1469,-3.1469,0,0,-3.0279,-3.0358,-3.0415,-3.0561,-3.063,-3.0728,-3.0707,-3.0812,-3.0886,-3.0908,-3.1039,-3.1096,-3.1198,-3.1337,-3.1403,-3.1387,-3.1606,-3.1548,-3.1554,-3.1562,-3.1642,-3.1659,-3.1674,-3.1475,-3.1474,-3.1473,0,0,-3.0388,-3.0457,-3.056,-3.063,-3.0735,-3.0785,-3.0809,-3.0918,-3.0956,-3.1089,-3.1108,-3.1197,-3.1369,-3.1441,-3.15,-3.1638,-3.1648,-3.1668,-3.172,-3.1799,-3.1813,-3.1826,-3.1876,-3.1893,-3.1681,-3.1681,-3.1681,0,-3.0414,-3.0562,-3.0612,-3.0717,-3.0781,-3.0806,-3.0912,-3.0977,-3.1109,-3.1153,-3.1134,-3.1351,-3.1421,-3.1579,-3.1612,-3.1659,-3.169,-3.1655,-3.1807,-3.1821,-3.1833,-3.1882,-3.19,-3.1683,-3.1682,-3.1682,-3.1682,0,-3.059,-3.0693,-3.0764,-3.089,-3.0963,-3.1067,-3.1134,-3.1201,-3.1226,-3.1278,-3.1413,-3.1499,-3.1615,-3.1655,-3.1679,-3.1817,-3.1804,-3.1795,-3.176,-3.1851,-3.1898,-3.1917,-3.1685,-3.1684,-3.1684,-3.1684,0,0,-3.0699,-3.0853,-3.0878,-3.0936,-3.1055,-3.1136,-3.1242,-3.1356,-3.1413,-3.1503,-3.1595,-3.174,-3.1734,-3.1801,-3.1834,-3.1903,-3.2009,-3.1887,-3.189,-3.1907,-3.2167,-3.2172,-3.2193,-3.2016,-3.202,-3.2023,-3.2158,0,-3.0821,-3.1011,-3.106,-3.1222,-3.1318,-3.1344,-3.1438,-3.1521,-3.1573,-3.1663,-3.1721,-3.1823,-3.1806,-3.1847,-3.1917,-3.1981,-3.2061,-3.1972,-3.2103,-3.2107,-3.2076,-3.2217,-3.2223,-3.2347,-3.2177,-3.218,-3.2182,0,-3.0989,-3.1083,-3.1254,-3.1362,-3.1404,-3.1486,-3.1595,-3.1681,-3.1777,-3.181,-3.1886,-3.1913,-3.2026,-3.1985,-3.2143,-3.2081,-3.2138,-3.2178,-3.2184,-3.2198,-3.2149,-3.2235,-3.2387,-3.2406,-3.2211,-3.2209,-3.2206,0,-3.1052,-3.1221,-3.1346,-3.1395,-3.1523,-3.1581,-3.1637,-3.173,-3.1796,-3.1891,-3.1935,-3.2042,-3.2101,-3.2184,-3.224,-3.2205,-3.2394,-3.2357,-3.2426,-3.2425,-3.2464,-3.2461,-3.2628,-3.25,-3.25,-3.25,-3.2499,0,-3.1183,-3.1287,-3.1376,-3.1453,-3.1571,-3.1627,-3.1742,-3.1799,-3.1882,-3.1971,-3.2001,-3.2085,-3.2154,-3.2247,-3.2292,-3.2417,-3.2443,-3.2474,-3.2484,-3.2471,-3.2467,-3.2509,-3.2502,-3.2505,-3.2504,-3.2503,-3.2502,0,-3.1273,-3.1336,-3.1474,-3.1585,-3.1615,-3.1697,-3.1792,-3.1869,-3.1922,-3.2035,-3.2065,-3.2149,-3.2261,-3.2325,-3.2466,-3.2496,-3.2635,-3.2641,-3.2602,-3.2607,-3.2672,-3.2665,-3.2871,-3.2902,-3.2753,-3.2755,-3.2756,0,-3.1352,-3.1433,-3.1552,-3.1614,-3.1671,-3.177,-3.1837,-3.1896,-3.1965,-3.2081,-3.2144,-3.2257,-3.2351,-3.2528,-3.2603,-3.2711,-3.2721,-3.2786,-3.2737,-3.2722,-3.2722,-3.2717,-3.2726,-3.2794,-3.2795,-3.2796,-3.2797,0,-3.1486,-3.1514,-3.161,-3.1717,-3.1797,-3.1884,-3.1971,-3.202,-3.2094,-3.217,-3.2284,-3.2357,-3.2501,-3.2614,-3.2729,-3.2788,-3.2806,-3.2812,-3.2834,-3.2821,-3.2795,-3.2811,-3.2625,-3.2807,-3.2806,-3.2805,-3.2804,-3.2804,-3.1574,-3.1647,-3.1743,-3.1849,-3.1921,-3.2002,-3.2079,-3.2143,-3.2239,-3.236,-3.239,-3.251,-3.2606,-3.2762,-3.2824,-3.292,-3.2909,-3.294,-3.2948,-3.2955,-3.2957,-3.278,-3.2941,-3.2941,-3.2941,-3.2941,-3.2941,0,-3.171,-3.1774,-3.187,-3.1991,-3.2075,-3.2084,-3.2181,-3.2251,-3.2356,-3.2444,-3.2536,-3.2668,-3.2778,-3.2862,-3.2975,-3.3036,-3.3047,-3.3063,-3.306,-3.3073,-3.296,-3.2931,-3.3053,-3.3053,-3.3053,-3.3053,-3.3052,-3.3052,-3.1791,-3.1916,-3.1956,-3.2118,-3.2181,-3.2298,-3.2353,-3.2429,-3.2499,-3.2645,-3.2737,-3.279,-3.2877,-3.2997,-3.3099,-3.3121,-3.3161,-3.3177,-3.32,-3.3093,-3.3081,-3.3069,-3.3042,-3.3185,-3.3185,-3.3305,-3.3306,-3.3307]}]]